Location: Saratoga Springs
(43.0831°N, 73.7850°W)
Time: 07:13:54
(UTC-04:00)

Vanguard 1 Rocket - Pass Details

Date: 15 April 2024
Orbit: 651 x 4220 km, 34.3° (Epoch: 20 May)

Event Time Altitude Azimuth Distance (km) Brightness Sun altitude
Rises 02:33:14 0° 274° (W) 5,357 11.1 -32.4°
Enters shadow 02:33:30 - 274° (W) 5,305 11.1 -32.4°
Reaches altitude 10° 02:36:39 10° 265° (W) 4,781 - -32.1°
Maximum altitude 02:49:04 33° 208° (SSW) 4,436 - -30.9°
Exits shadow 02:56:23 27° 178° (S) 5,317 10.8 -30.2°
Drops below altitude 10° 03:08:16 10° 155° (SSE) 7,269 11.7 -28.9°
Sets 03:15:22 0° 147° (SSE) 8,445 12.2 -28.1°
